Location: Newcastle Observatory
(43.9158°N, 78.5831°W)
Time: 10:09:22
(UTC-04:00)

Amateur Radio Satellites - All Passes

Search period start: 30 July 2015 09:39
Search period end: 31 July 2015 09:39
Location: Newcastle Observatory, 43.9158°N, 78.5831°W

Satellite Date Start Highest point End Downlink Frequencies (MHz)
Time Altitude Azimuth
AIST 2 30 Jul 09:42:04 09:45:43 28° 44° (NE) 09:49:20 435.215
SO-50 30 Jul 09:50:38 09:54:33 27° 114° (ESE) 09:58:40 436.795
UWE-3 30 Jul 09:53:28 09:56:15 16° 89° (E) 09:59:14 435.000/436.395/437.385
PCSat 30 Jul 09:55:22 10:00:28 45° 114° (ESE) 10:05:39 145.827
AUBIESAT-1 30 Jul 09:55:43 09:59:42 67° 254° (WSW) 10:04:02 437.475
GONETS M04 30 Jul 09:57:30 10:00:58 12° 310° (NW) 10:03:50
FUNcube-1 30 Jul 09:58:01 10:00:04 13° 88° (E) 10:02:20 145.935
RS-15 30 Jul 10:00:35 10:08:57 21° 259° (WSW) 10:16:45 29.354- 29.394
BEESAT 2 30 Jul 10:02:10 10:06:08 50° 241° (WSW) 10:10:01 435.950
CUBEBUG 2 30 Jul 10:03:30 10:07:20 26° 94° (E) 10:11:17 437.445
COMPASS 1 30 Jul 10:07:02 10:11:16 65° 101° (ESE) 10:15:27 437.405
BRITE-PL 30 Jul 10:07:52 10:11:27 25° 291° (WNW) 10:15:06 437.365/2234.400
HO-68 30 Jul 10:09:53 10:17:07 85° 106° (ESE) 10:24:20 435.675
Oscar 11 30 Jul 10:13:32 10:17:20 29° 95° (E) 10:21:10 145.826/435.025
POPSAT HIP 1 30 Jul 10:16:55 10:18:53 13° 63° (ENE) 10:21:03 437.405
CUTE 1.7 + AOD 2 30 Jul 10:17:38 10:21:54 62° 286° (WNW) 10:26:08 437.475
SEEDS 30 Jul 10:18:22 10:22:39 75° 284° (WNW) 10:26:53 437.485
TIGRISAT 30 Jul 10:19:47 10:23:40 34° 69° (ENE) 10:27:42 435.000
ANTELSAT 30 Jul 10:20:31 10:24:28 36° 70° (ENE) 10:28:34 437.575/2403.000
QB50P2 30 Jul 10:23:21 10:25:54 16° 64° (ENE) 10:28:36 145.880/145.840
CANX-2 30 Jul 10:25:47 10:29:55 45° 288° (WNW) 10:34:01 2200.000
DOVE 4 30 Jul 10:28:46 10:33:02 41° 288° (WNW) 10:37:30 437.250
GOMX 1 30 Jul 10:29:57 10:33:39 26° 291° (WNW) 10:37:28 467.674
BUGSAT 1 30 Jul 10:33:17 10:34:46 12° 63° (ENE) 10:36:26 437.445
HUMSAT D 30 Jul 10:40:02 10:42:28 15° 89° (E) 10:45:05 437.325/437.525
BEESAT 3 30 Jul 10:46:42 10:48:59 14° 249° (WSW) 10:51:04 437.485
DUCHIFAT 1 30 Jul 10:49:22 10:52:52 27° 68° (ENE) 10:56:27 145.980
AAUSAT CUBESAT 2 30 Jul 10:50:35 10:54:40 48° 287° (WNW) 10:58:42 437.432
QB50P1 30 Jul 10:50:47 10:54:25 29° 69° (ENE) 10:58:06 145.935-145.965
DELFI C3 30 Jul 10:52:00 10:55:59 51° 99° (E) 10:59:56 145.870
NANOSAT C BR1 30 Jul 10:52:53 10:56:32 30° 69° (ENE) 11:00:15 145.865
CINEMA 3 30 Jul 10:54:10 10:58:38 49° 288° (WNW) 11:03:15 145.822/145.860
M-CUBED/EXP-1 PRIME 30 Jul 11:01:46 11:03:29 12° 269° (W) 11:05:02 437.505
50 SAT 30 Jul 11:02:11 11:03:07 11° 88° (E) 11:04:15 437.505
ZACube-1 30 Jul 11:09:37 11:14:10 75° 103° (ESE) 11:18:45 437.345
Cosmos 2499 30 Jul 11:11:07 11:15:04 14° 307° (NW) 11:18:40 435.465 / 435.565
UNISAT 6 30 Jul 11:11:39 11:15:57 66° 258° (WSW) 11:20:24 437.425
AIST 2 30 Jul 11:20:29 11:24:20 35° 243° (WSW) 11:28:05 435.215
YUBILEINY 30 Jul 11:23:50 11:31:53 39° 69° (ENE) 11:40:03 435.215
UWE-3 30 Jul 11:28:40 11:33:08 55° 287° (WNW) 11:37:41 435.000/436.395/437.385
SO-50 30 Jul 11:30:18 11:34:55 44° 312° (NW) 11:39:39 436.795
POLYITAN 1 30 Jul 11:32:06 11:36:18 84° 75° (ENE) 11:40:32 437.675
FUNcube-1 30 Jul 11:32:23 11:36:52 66° 286° (WNW) 11:41:24 145.935
PCSat 30 Jul 11:39:14 11:44:04 31° 313° (NW) 11:48:53 145.827
CUBEBUG 2 30 Jul 11:39:53 11:44:04 35° 290° (WNW) 11:48:18 437.445
AIST 1 30 Jul 11:41:52 11:43:07 11° 85° (E) 11:44:36
AISAT 30 Jul 11:41:54 11:45:40 28° 95° (E) 11:49:30 437.250
COMPASS 1 30 Jul 11:44:22 11:46:27 13° 297° (WNW) 11:48:20 437.405
O/OREOS (USA 219) 30 Jul 11:45:03 11:49:23 40° 60° (ENE) 11:53:43 437.305
Oscar 11 30 Jul 11:49:43 11:53:27 27° 292° (WNW) 11:57:07 145.826/435.025
POPSAT HIP 1 30 Jul 11:50:09 11:54:18 62° 259° (W) 11:58:29 437.405
UKube-1 30 Jul 11:50:15 11:54:28 50° 100° (E) 11:58:40 .
TIGRISAT 30 Jul 11:57:01 12:00:31 23° 267° (W) 12:04:01 435.000
QB50P2 30 Jul 11:57:21 12:01:26 50° 261° (W) 12:05:34 145.880/145.840
ANTELSAT 30 Jul 11:57:57 12:01:24 22° 268° (W) 12:04:49 437.575/2403.000
HO-68 30 Jul 11:58:51 12:04:07 22° 305° (NW) 12:09:09 435.675
Cosmos 2491 30 Jul 11:59:42 12:06:42 29° 83° (E) 12:13:57 435.465 / 435.565
CUBEBUG 1 30 Jul 12:02:54 12:06:31 26° 94° (E) 12:10:11 437.445
BUGSAT 1 30 Jul 12:05:44 12:09:46 66° 258° (WSW) 12:13:48 437.445
HUMSAT D 30 Jul 12:14:21 12:18:34 53° 287° (WNW) 12:22:47 437.325/437.525
DX 1 30 Jul 12:14:57 12:19:18 80° 285° (WNW) 12:23:38 434.975-435.025
VELOX 1 30 Jul 12:21:13 12:25:37 70° 102° (ESE) 12:30:00 145.980
ESTCUBE 1 30 Jul 12:24:26 12:28:51 54° 100° (E) 12:33:14 437.505/2401.250
DUCHIFAT 1 30 Jul 12:25:02 12:28:38 27° 265° (W) 12:32:12 145.980
QB50P1 30 Jul 12:26:46 12:30:17 25° 266° (W) 12:33:46 145.935-145.965
DELFI C3 30 Jul 12:28:17 12:30:40 15° 296° (WNW) 12:32:55 145.870
NANOSAT C BR1 30 Jul 12:28:56 12:32:24 24° 266° (W) 12:35:49 145.865
50 SAT 30 Jul 12:34:13 12:38:10 63° 286° (WNW) 12:42:06 437.505
SPROUT 30 Jul 12:47:07 12:50:36 24° 93° (E) 12:54:08 437.525
ZACube-1 30 Jul 12:47:45 12:49:59 13° 298° (WNW) 12:52:04 437.345
Cosmos 2504 30 Jul 13:07:15 13:13:23 23° 62° (ENE) 13:19:58 435.465 / 435.565
TISAT 1 30 Jul 13:07:16 13:10:40 24° 94° (E) 13:14:08 437.305
Oscar 19 30 Jul 13:12:41 13:17:26 41° 69° (ENE) 13:22:16 437.125/150
SO-50 30 Jul 13:14:55 13:16:47 12° 335° (NNW) 13:18:32 436.795
AIST 1 30 Jul 13:15:55 13:20:15 66° 280° (W) 13:24:35
AISAT 30 Jul 13:18:23 13:22:14 29° 292° (WNW) 13:26:02 437.250
YUBILEINY 30 Jul 13:20:35 13:29:01 51° 270° (W) 13:37:22 435.215
O/OREOS (USA 219) 30 Jul 13:25:00 13:28:35 22° 257° (WSW) 13:32:04 437.305
UKube-1 30 Jul 13:27:22 13:30:14 17° 296° (WNW) 13:32:59 .
AO-7 30 Jul 13:31:49 13:34:31 12° 40° (NE) 13:37:38 29.400- 29.500
CUBEBUG 1 30 Jul 13:39:05 13:42:53 30° 291° (WNW) 13:46:38 437.445
Cosmos 2491 30 Jul 13:54:17 14:03:01 65° 283° (WNW) 14:11:43 435.465 / 435.565
Gurwin Techsat 1B 30 Jul 13:55:36 14:00:16 33° 67° (ENE) 14:05:01 435.225
VELOX 1 30 Jul 13:59:27 14:01:40 13° 298° (WNW) 14:03:40 145.980
ESTCUBE 1 30 Jul 14:02:21 14:05:20 17° 296° (WNW) 14:08:10 437.505/2401.250
BEESAT 30 Jul 14:22:43 14:26:44 27° 94° (E) 14:30:47 436.000
SPROUT 30 Jul 14:22:53 14:26:44 32° 290° (WNW) 14:30:32 437.525
ITAMSAT 1 30 Jul 14:28:52 14:33:58 58° 72° (ENE) 14:39:07 435.822/435.867
JAS-2 30 Jul 14:32:54 14:38:07 30° 62° (ENE) 14:44:01 435.910
SWISSCUBE 30 Jul 14:42:35 14:47:11 45° 99° (E) 14:51:45 437.505
TISAT 1 30 Jul 14:42:44 14:46:28 31° 291° (WNW) 14:50:11 437.305
CUSAT 1 30 Jul 14:44:03 14:46:01 13° 71° (ENE) 14:48:25 437.405
Oscar 19 30 Jul 14:52:43 14:56:59 26° 267° (W) 15:01:11 437.125/150
Cosmos 2504 30 Jul 14:58:20 15:06:43 85° 263° (W) 15:15:22 435.465 / 435.565
ITUPSAT 1 30 Jul 15:02:28 15:07:15 65° 101° (ESE) 15:12:00 437.325
AO-7 30 Jul 15:17:36 15:25:24 47° 62° (ENE) 15:33:18 29.400- 29.500
STARS 30 Jul 15:26:11 15:27:45 12° 88° (E) 15:29:33 437.465
Gurwin Techsat 1B 30 Jul 15:35:22 15:40:13 35° 264° (W) 15:45:03 435.225
KKS-1 30 Jul 15:46:15 15:50:15 32° 96° (E) 15:54:17 437.445
DANDE 30 Jul 15:51:09 15:54:25 37° 78° (ENE) 15:58:39 436.750
HORYU 2 30 Jul 15:51:27 15:55:43 49° 72° (ENE) 16:00:04 437.375
Cosmos 2491 30 Jul 15:57:37 16:02:09 14° 308° (NW) 16:06:08 435.465 / 435.565
BEESAT 30 Jul 16:00:17 16:04:39 35° 291° (WNW) 16:08:56 436.000
GONETS M04 30 Jul 16:06:03 16:11:16 18° 56° (NE) 16:16:55
ITAMSAT 1 30 Jul 16:10:10 16:13:55 19° 270° (W) 16:17:29 435.822/435.867
JAS-2 30 Jul 16:17:03 16:22:53 51° 263° (W) 16:29:30 435.910
SWISSCUBE 30 Jul 16:21:05 16:24:46 22° 296° (WNW) 16:28:20 437.505
CUSAT 1 30 Jul 16:24:46 16:28:35 54° 261° (W) 16:33:38 437.405
MOZHAYETS 4 30 Jul 16:25:19 16:26:19 11° 85° (E) 16:27:37
SO-50 30 Jul 16:41:33 16:42:44 11° 24° (NNE) 16:44:03 436.795
ITUPSAT 1 30 Jul 16:41:38 16:44:41 16° 298° (WNW) 16:47:32 437.325
Cosmos 2504 30 Jul 16:52:31 16:57:56 18° 281° (W) 17:03:00 435.465 / 435.565
PCSat 30 Jul 17:00:00 17:02:05 12° 30° (NNE) 17:04:20 145.827
STARS 30 Jul 17:00:20 17:04:45 69° 286° (WNW) 17:09:08 437.465
AO-7 30 Jul 17:10:21 17:18:16 44° 261° (W) 17:26:10 29.400- 29.500
Cosmos 2499 30 Jul 17:12:02 17:13:29 11° 49° (NE) 17:15:36 435.465 / 435.565
KKS-1 30 Jul 17:23:02 17:26:47 26° 293° (WNW) 17:30:29 437.445
CUTE-I 30 Jul 17:23:15 17:27:01 20° 62° (ENE) 17:30:55 437.470
HORYU 2 30 Jul 17:29:42 17:32:42 17° 270° (W) 17:35:33 437.375
DANDE 30 Jul 17:35:18 17:37:30 14° 264° (W) 17:39:49 436.750
MOZHAYETS 4 30 Jul 17:59:36 18:04:16 81° 283° (WNW) 18:08:53
GONETS M04 30 Jul 18:01:10 18:09:56 78° 80° (E) 18:18:41
Cubesat XI-IV 30 Jul 18:05:07 18:10:11 45° 69° (ENE) 18:15:18 437.490
CUBESAT XI-V 30 Jul 18:13:22 18:15:18 13° 87° (E) 18:17:28 437.345
SO-50 30 Jul 18:20:04 18:24:44 39° 46° (NE) 18:29:19 436.795
PCSat 30 Jul 18:41:38 18:46:55 50° 53° (NE) 18:52:11 145.827
HO-68 30 Jul 18:55:54 18:59:49 16° 51° (NE) 19:04:03 435.675
Cosmos 2499 30 Jul 19:00:56 19:09:18 50° 73° (ENE) 19:17:53 435.465 / 435.565
CUTE-I 30 Jul 19:01:21 19:06:40 62° 259° (WSW) 19:12:01 437.470
VERMONT LUNAR 30 Jul 19:20:01 19:21:56 15° 154° (SSE) 19:23:51 437.305
STRAND 1 30 Jul 19:35:49 19:40:07 27° 94° (E) 19:44:29 437.568
CUTE 1.7 + AOD 2 30 Jul 19:38:42 19:40:18 12° 62° (ENE) 19:42:06 437.475
MOZHAYETS 4 30 Jul 19:40:06 19:40:46 10° 301° (WNW) 19:41:10
BRITE-PL 30 Jul 19:41:42 19:45:51 42° 72° (ENE) 19:49:51 437.365/2234.400
CANX-2 30 Jul 19:45:45 19:48:18 16° 64° (ENE) 19:50:59 2200.000
Cubesat XI-IV 30 Jul 19:46:01 19:50:30 26° 267° (W) 19:54:54 437.490
CUBESAT XI-V 30 Jul 19:48:43 19:53:19 69° 285° (WNW) 19:57:52 437.345
GONETS M04 30 Jul 19:59:24 20:05:57 23° 279° (W) 20:12:09
DOVE 4 30 Jul 19:59:25 20:02:39 23° 68° (ENE) 20:05:57 437.250
SO-50 30 Jul 20:00:47 20:05:13 32° 245° (WSW) 20:09:29 436.795
GOMX 1 30 Jul 20:01:40 20:05:36 39° 72° (ENE) 20:09:30 467.674
PRISM 30 Jul 20:03:48 20:07:42 39° 98° (E) 20:11:33 437.425
RS-15 30 Jul 20:09:01 20:11:24 11° 96° (E) 20:14:56 29.354- 29.394
AAUSAT CUBESAT 2 30 Jul 20:09:06 20:11:09 14° 64° (ENE) 20:13:24 437.432
CINEMA 3 30 Jul 20:21:58 20:24:46 18° 65° (ENE) 20:27:42 145.822/145.860
PCSat 30 Jul 20:25:36 20:30:05 26° 251° (WSW) 20:34:25 145.827
HO-68 30 Jul 20:39:24 20:46:29 73° 71° (ENE) 20:53:39 435.675
PHONESAT 2.4 30 Jul 20:43:25 20:44:41 12° 150° (SSE) 20:46:03 2401.200-2431.200
UWE-3 30 Jul 20:52:53 20:55:12 15° 63° (ENE) 20:57:42 435.000/436.395/437.385
Cosmos 2499 30 Jul 20:54:23 21:02:21 40° 273° (W) 21:10:20 435.465 / 435.565
VERMONT LUNAR 30 Jul 20:55:12 20:58:12 37° 170° (S) 21:01:10 437.305
FUNcube-1 30 Jul 20:56:09 20:57:46 12° 62° (ENE) 20:59:35 145.935
COMPASS 1 30 Jul 20:59:15 21:03:20 52° 73° (ENE) 21:07:29 437.405
CUBEBUG 2 30 Jul 21:03:42 21:07:00 24° 67° (ENE) 21:10:27 437.445
Oscar 11 30 Jul 21:09:44 21:13:23 28° 68° (ENE) 21:17:08 145.826/435.025
SEEDS 30 Jul 21:11:18 21:15:33 90° 79° (E) 21:19:50 437.485
CUTE 1.7 + AOD 2 30 Jul 21:11:24 21:15:40 74° 258° (WSW) 21:19:59 437.475
STRAND 1 30 Jul 21:14:43 21:19:27 38° 292° (WNW) 21:24:07 437.568
CANX-2 30 Jul 21:19:39 21:23:50 53° 261° (W) 21:28:03 2200.000
BRITE-PL 30 Jul 21:21:33 21:24:38 18° 268° (W) 21:27:30 437.365/2234.400
HUMSAT D 30 Jul 21:34:02 21:35:56 13° 63° (ENE) 21:38:03 437.325/437.525
DOVE 4 30 Jul 21:36:35 21:40:20 31° 264° (W) 21:44:02 437.250
DX 1 30 Jul 21:38:43 21:40:16 12° 61° (ENE) 21:42:01 434.975-435.025
PRISM 30 Jul 21:39:53 21:42:53 19° 295° (WNW) 21:45:45 437.425
DELFI C3 30 Jul 21:40:18 21:44:03 37° 71° (ENE) 21:47:52 145.870
GOMX 1 30 Jul 21:40:58 21:43:59 18° 268° (W) 21:46:50 467.674
AAUSAT CUBESAT 2 30 Jul 21:42:08 21:46:18 61° 260° (W) 21:50:30 437.432
CINEMA 3 30 Jul 21:57:46 22:01:42 41° 262° (W) 22:05:42 145.822/145.860
ZACube-1 30 Jul 22:06:55 22:11:04 67° 75° (ENE) 22:15:20 437.345
Cosmos 2491 30 Jul 22:08:03 22:12:34 15° 53° (NE) 22:17:34 435.465 / 435.565
RS-15 30 Jul 22:11:01 22:21:33 60° 115° (ESE) 22:32:33 29.354- 29.394
PHONESAT 2.4 30 Jul 22:18:54 22:22:05 33° 165° (SSE) 22:25:18 2401.200-2431.200
ISS 30 Jul 22:19:17 22:22:24 44° 142° (SE) 22:25:32 145.825
UWE-3 30 Jul 22:27:12 22:31:19 55° 261° (W) 22:35:32 435.000/436.395/437.385
FUNcube-1 30 Jul 22:29:23 22:33:33 71° 259° (WSW) 22:37:50 145.935
HO-68 30 Jul 22:29:30 22:34:59 22° 270° (W) 22:40:13 435.675
VERMONT LUNAR 30 Jul 22:31:39 22:34:41 41° 187° (S) 22:37:41 437.305
COMPASS 1 30 Jul 22:36:57 22:39:23 14° 271° (W) 22:41:39 437.405
M-CUBED/EXP-1 PRIME 30 Jul 22:38:03 22:42:40 45° 103° (ESE) 22:47:13 437.505
CUBEBUG 2 30 Jul 22:39:49 22:43:34 32° 265° (W) 22:47:24 437.445
AISAT 30 Jul 22:40:59 22:44:50 30° 68° (ENE) 22:48:43 437.250
Oscar 11 30 Jul 22:45:43 22:49:32 29° 265° (W) 22:53:18 145.826/435.025
UKube-1 30 Jul 22:46:11 22:50:22 51° 72° (ENE) 22:54:35 .
CUBEBUG 1 30 Jul 23:00:26 23:04:04 27° 68° (ENE) 23:07:47 437.445
UNISAT 6 30 Jul 23:02:24 23:06:11 24° 93° (E) 23:10:04 437.425
HUMSAT D 30 Jul 23:07:06 23:11:12 63° 260° (W) 23:15:23 437.325/437.525
AUBIESAT-1 30 Jul 23:08:57 23:13:45 78° 107° (ESE) 23:18:25 437.475
DX 1 30 Jul 23:11:37 23:15:58 78° 256° (WSW) 23:20:21 434.975-435.025
DELFI C3 30 Jul 23:16:22 23:19:18 19° 269° (W) 23:22:08 145.870
POLYITAN 1 30 Jul 23:17:50 23:19:38 13° 88° (E) 23:21:39 437.675
50 SAT 30 Jul 23:18:55 23:22:47 85° 77° (ENE) 23:26:44 437.505
VELOX 1 30 Jul 23:19:53 23:24:17 74° 75° (ENE) 23:28:42 145.980
AIST 1 30 Jul 23:21:49 23:25:40 33° 74° (ENE) 23:29:32
ESTCUBE 1 30 Jul 23:25:09 23:29:36 59° 73° (ENE) 23:34:05 437.505/2401.250
POPSAT HIP 1 30 Jul 23:34:36 23:37:35 19° 92° (E) 23:40:42 437.405
QB50P2 30 Jul 23:41:33 23:44:57 23° 93° (E) 23:48:25 145.880/145.840
SPROUT 30 Jul 23:42:51 23:46:11 23° 67° (ENE) 23:49:36 437.525
TIGRISAT 30 Jul 23:45:50 23:50:29 64° 101° (E) 23:55:10 435.000
ZACube-1 30 Jul 23:46:41 23:48:02 11° 274° (W) 23:49:09 437.345
ANTELSAT 30 Jul 23:46:55 23:51:36 68° 101° (ESE) 23:56:18 437.575/2403.000
BUGSAT 1 30 Jul 23:47:33 23:49:55 15° 91° (E) 23:52:28 437.445
ISS 30 Jul 23:55:54 23:58:54 34° 340° (NNW) 00:01:56 145.825
PHONESAT 2.4 30 Jul 23:56:22 23:59:46 48° 182° (S) 00:03:09 2401.200-2431.200
BEESAT 2 30 Jul 23:57:28 00:00:28 20° 113° (ESE) 00:03:35 435.950
TISAT 1 31 Jul 00:00:59 00:04:12 22° 67° (ENE) 00:07:30 437.305
Cosmos 2491 31 Jul 00:02:49 00:11:32 70° 78° (ENE) 00:20:13 435.465 / 435.565
DUCHIFAT 1 31 Jul 00:07:30 00:11:31 40° 98° (E) 00:15:32 145.980
VERMONT LUNAR 31 Jul 00:08:39 00:11:01 19° 203° (SSW) 00:13:20 437.305
QB50P1 31 Jul 00:09:31 00:13:36 44° 99° (E) 00:17:42 145.935-145.965
NANOSAT C BR1 31 Jul 00:11:23 00:15:28 46° 99° (E) 00:19:35 145.865
M-CUBED/EXP-1 PRIME 31 Jul 00:13:15 00:17:11 25° 300° (WNW) 00:20:59 437.505
AISAT 31 Jul 00:17:38 00:21:25 27° 265° (W) 00:25:08 437.250
RS-15 31 Jul 00:23:50 00:34:24 48° 321° (NW) 00:45:22 29.354- 29.394
UKube-1 31 Jul 00:24:11 00:26:51 15° 270° (W) 00:29:23 .
YUBILEINY 31 Jul 00:26:46 00:34:37 41° 87° (E) 00:42:40 435.215
ITUPSAT 1 31 Jul 00:36:29 00:38:03 12° 59° (ENE) 00:39:52 437.325
CUBEBUG 1 31 Jul 00:36:31 00:40:23 30° 265° (W) 00:44:12 437.445
BEESAT 3 31 Jul 00:38:22 00:42:25 70° 121° (ESE) 00:46:31 437.485
UNISAT 6 31 Jul 00:38:44 00:43:04 38° 290° (WNW) 00:47:23 437.425
AUBIESAT-1 31 Jul 00:45:02 00:47:52 16° 304° (NW) 00:50:33 437.475
POLYITAN 1 31 Jul 00:51:46 00:56:00 61° 287° (WNW) 01:00:14 437.675
AIST 1 31 Jul 00:59:53 01:03:09 21° 271° (W) 01:06:19
VELOX 1 31 Jul 01:00:05 01:01:26 11° 273° (W) 01:02:32 145.980
ESTCUBE 1 31 Jul 01:04:15 01:06:55 15° 271° (W) 01:09:23 437.505/2401.250
POPSAT HIP 1 31 Jul 01:09:39 01:13:40 40° 289° (WNW) 01:17:39 437.405
QB50P2 31 Jul 01:17:04 01:20:54 33° 290° (WNW) 01:24:43 145.880/145.840
SPROUT 31 Jul 01:18:12 01:22:06 34° 263° (W) 01:26:01 437.525
AIST 2 31 Jul 01:19:16 01:23:04 33° 117° (ESE) 01:26:57 435.215
BUGSAT 1 31 Jul 01:21:47 01:25:41 45° 288° (WNW) 01:29:35 437.445
TIGRISAT 31 Jul 01:23:52 01:26:47 16° 297° (WNW) 01:29:31 435.000
Oscar 19 31 Jul 01:24:31 01:26:37 13° 86° (E) 01:29:01 437.125/150
ANTELSAT 31 Jul 01:25:07 01:27:54 15° 297° (WNW) 01:30:30 437.575/2403.000
BEESAT 31 Jul 01:30:23 01:34:44 36° 69° (ENE) 01:39:10 436.000
ISS 31 Jul 01:33:27 01:36:00 20° 360° (N) 01:38:32 145.825
BEESAT 2 31 Jul 01:34:20 01:38:16 43° 310° (NW) 01:42:14 435.950
PHONESAT 2.4 31 Jul 01:34:20 01:37:25 28° 198° (SSW) 01:40:27 2401.200-2431.200
TISAT 1 31 Jul 01:35:59 01:39:48 34° 263° (W) 01:43:37 437.305
DUCHIFAT 1 31 Jul 01:43:57 01:47:04 20° 294° (WNW) 01:50:05 145.980
Cosmos 2504 31 Jul 01:44:42 01:46:40 12° 75° (ENE) 01:49:12 435.465 / 435.565
QB50P1 31 Jul 01:46:11 01:49:10 18° 295° (WNW) 01:52:02 145.935-145.965
NANOSAT C BR1 31 Jul 01:48:05 01:51:00 18° 295° (WNW) 01:53:47 145.865
SWISSCUBE 31 Jul 01:50:17 01:55:01 62° 72° (ENE) 01:59:47 437.505
O/OREOS (USA 219) 31 Jul 01:58:54 02:02:55 34° 106° (ESE) 02:07:01 437.305
Cosmos 2491 31 Jul 02:00:46 02:07:43 26° 278° (W) 02:14:22 435.465 / 435.565
ITUPSAT 1 31 Jul 02:10:27 02:15:16 86° 74° (ENE) 02:20:08 437.325
Gurwin Techsat 1B 31 Jul 02:12:49 02:13:52 11° 85° (E) 02:15:16 435.225
BEESAT 3 31 Jul 02:18:03 02:20:49 17° 322° (NW) 02:23:32 437.485
YUBILEINY 31 Jul 02:23:05 02:31:25 47° 288° (WNW) 02:39:45 435.215
STARS 31 Jul 02:24:34 02:26:44 14° 62° (ENE) 02:29:03 437.465
ITAMSAT 1 31 Jul 02:41:22 02:44:46 18° 90° (E) 02:48:21 435.822/435.867
RS-15 31 Jul 02:41:27 02:50:32 26° 353° (N) 02:59:53 29.354- 29.394
KKS-1 31 Jul 02:45:44 02:49:44 35° 69° (ENE) 02:53:47 437.445
AIST 2 31 Jul 02:57:53 03:01:40 30° 315° (NW) 03:05:26 435.215
Oscar 19 31 Jul 03:01:32 03:06:44 82° 287° (WNW) 03:11:56 437.125/150
BEESAT 31 Jul 03:08:38 03:12:41 26° 266° (W) 03:16:40 436.000
ISS 31 Jul 03:10:04 03:13:05 33° 20° (NNE) 03:16:06 145.825
AO-7 31 Jul 03:22:10 03:22:58 10° 81° (E) 03:24:35 29.400- 29.500
JAS-2 31 Jul 03:24:18 03:30:44 28° 89° (E) 03:37:21 435.910
MOZHAYETS 4 31 Jul 03:28:18 03:30:31 14° 62° (ENE) 03:32:57
Cosmos 2504 31 Jul 03:30:23 03:37:25 71° 94° (E) 03:45:02 435.465 / 435.565
SWISSCUBE 31 Jul 03:30:24 03:33:21 16° 271° (W) 03:36:07 437.505
O/OREOS (USA 219) 31 Jul 03:38:36 03:42:25 26° 304° (NW) 03:46:14 437.305
Gurwin Techsat 1B 31 Jul 03:49:26 03:54:47 84° 102° (ESE) 04:00:07 435.225
ITUPSAT 1 31 Jul 03:52:38 03:53:55 11° 274° (W) 03:54:54 437.325
STARS 31 Jul 03:58:21 04:02:42 66° 259° (W) 04:07:03 437.465
ITAMSAT 1 31 Jul 04:19:38 04:24:45 60° 289° (WNW) 04:29:50 435.822/435.867
KKS-1 31 Jul 04:22:52 04:26:28 23° 267° (W) 04:29:59 437.445
Oscar 19 31 Jul 04:43:11 04:45:22 12° 302° (WNW) 04:47:19 437.125/150
ISS 31 Jul 04:46:27 04:49:37 45° 217° (SW) 04:52:44 145.825
RS-15 31 Jul 04:57:15 05:07:29 35° 27° (NNE) 05:18:15 29.354- 29.394
MOZHAYETS 4 31 Jul 05:02:34 05:07:12 75° 258° (WSW) 05:11:52
DANDE 31 Jul 05:05:51 05:09:00 39° 99° (E) 05:11:39 436.750
JAS-2 31 Jul 05:08:35 05:16:19 68° 288° (WNW) 05:24:02 435.910
AO-7 31 Jul 05:09:36 05:17:51 60° 103° (ESE) 05:26:03 29.400- 29.500
GONETS M04 31 Jul 05:11:30 05:16:26 17° 78° (ENE) 05:21:49
HORYU 2 31 Jul 05:17:27 05:22:00 83° 102° (ESE) 05:26:30 437.375
CUBESAT XI-V 31 Jul 05:18:00 05:20:49 16° 63° (ENE) 05:23:48 437.345
Cosmos 2504 31 Jul 05:24:55 05:30:35 23° 298° (WNW) 05:36:19 435.465 / 435.565
Gurwin Techsat 1B 31 Jul 05:31:06 05:34:08 15° 301° (WNW) 05:36:57 435.225
CUSAT 1 31 Jul 05:35:40 05:38:20 32° 283° (WNW) 05:40:46 437.405
Cubesat XI-IV 31 Jul 06:22:15 06:25:13 15° 88° (E) 06:28:25 437.490
STRAND 1 31 Jul 06:52:49 06:57:42 46° 70° (ENE) 07:02:38 437.568
CUBESAT XI-V 31 Jul 06:53:11 06:57:50 61° 260° (W) 07:02:28 437.345
PRISM 31 Jul 06:54:59 06:58:49 36° 70° (ENE) 07:02:40 437.425
JAS-2 31 Jul 06:55:30 07:00:09 17° 307° (NW) 07:04:30 435.910
HORYU 2 31 Jul 06:56:13 06:58:02 12° 300° (WNW) 06:59:38 437.375
AO-7 31 Jul 07:02:56 07:10:18 35° 302° (WNW) 07:17:29 29.400- 29.500
GONETS M04 31 Jul 07:03:22 07:12:06 85° 97° (E) 07:20:51
RS-15 31 Jul 07:10:05 07:21:54 84° 55° (NE) 07:34:09 29.354- 29.394
CUTE-I 31 Jul 07:17:03 07:22:12 47° 99° (E) 07:27:19 437.470
BEESAT 3 31 Jul 07:19:34 07:20:52 11° 32° (NNE) 07:22:17 437.485
Cosmos 2499 31 Jul 07:40:10 07:46:35 35° 86° (E) 07:53:36 435.465 / 435.565
BRITE-PL 31 Jul 07:46:14 07:47:30 11° 88° (E) 07:49:04 437.365/2234.400
Cubesat XI-IV 31 Jul 08:00:38 08:05:58 72° 287° (WNW) 08:11:16 437.490
GOMX 1 31 Jul 08:03:40 08:04:27 11° 87° (E) 08:05:33 467.674
HO-68 31 Jul 08:09:20 08:10:53 11° 82° (E) 08:13:02 435.675
BEESAT 2 31 Jul 08:14:26 08:17:43 23° 42° (NE) 08:21:00 435.950
AUBIESAT-1 31 Jul 08:25:18 08:27:33 15° 55° (NE) 08:30:01 437.475
PRISM 31 Jul 08:31:08 08:34:23 21° 267° (W) 08:37:31 437.425
STRAND 1 31 Jul 08:33:03 08:37:10 23° 268° (W) 08:41:11 437.568
BEESAT 3 31 Jul 08:55:36 08:59:39 65° 53° (NE) 09:03:38 437.485
SEEDS 31 Jul 08:55:45 08:57:54 14° 88° (E) 09:00:14 437.485
CUTE 1.7 + AOD 2 31 Jul 08:56:12 08:59:03 18° 90° (E) 09:02:02 437.475
CUTE-I 31 Jul 08:57:42 09:02:02 25° 296° (WNW) 09:06:13 437.470
GONETS M04 31 Jul 09:03:37 09:10:16 23° 300° (WNW) 09:16:35
CANX-2 31 Jul 09:03:57 09:07:24 24° 93° (E) 09:10:55 2200.000
BRITE-PL 31 Jul 09:22:14 09:26:33 71° 284° (WNW) 09:31:09 437.365/2234.400
AAUSAT CUBESAT 2 31 Jul 09:24:26 09:27:23 19° 91° (E) 09:30:27 437.432
PCSat 31 Jul 09:25:04 09:29:49 33° 111° (ESE) 09:34:40 145.827
M-CUBED/EXP-1 PRIME 31 Jul 09:27:11 09:31:10 66° 69° (ENE) 09:35:33 437.505
